GW2039 Weather Reports


time (UTC)temp
C
wind
direction
speed
KPH
gust
KPH
rain 1hr
cm
rain 24hr
cm
rain mn
cm
humidity
%
barometer
mb
20260504042201 27 154 11.3 24.1 0.00 0.00 0.00 55 1009.1
20260504042102 27 156 14.5 24.1 0.00 0.00 0.00 55 1009.2
20260504042005 27 160 14.5 24.1 0.00 0.00 0.00 55 1009.1
20260504041802 27 127 20.9 30.6 0.00 0.00 0.00 55 1009.1
20260504041703 27 184 19.3 25.7 0.00 0.00 0.00 55 1009.3
20260504041603 27 178 19.3 27.4 0.00 0.00 0.00 55 1009.1
20260504041504 27 160 17.7 24.1 0.00 0.00 0.00 55 1009.2
20260504041303 27 163 17.7 22.5 0.00 0.00 0.00 56 1009.1
20260504041202 27 187 16.1 22.5 0.00 0.00 0.00 56 1009.1
20260504041006 27 186 14.5 24.1 0.00 0.00 0.00 56 1009.1
20260504040902 27 198 14.5 20.9 0.00 0.00 0.00 57 1009.0
20260504040802 27 190 11.3 17.7 0.00 0.00 0.00 57 1009.1
20260504040702 27 169 9.7 19.3 0.00 0.00 0.00 58 1009.0
20260504040602 27 178 12.9 19.3 0.00 0.00 0.00 58 1008.9
20260504040504 27 182 12.9 19.3 0.00 0.00 0.00 58 1009.1
20260504040301 27 175 12.9 19.3 0.00 0.00 0.00 59 1009.0
20260504040202 27 132 14.5 19.3 0.00 0.00 0.00 59 1009.0
20260504040103 27 155 14.5 19.3 0.00 0.00 0.00 58 1009.0
20260504035903 27 146 11.3 19.3 0.00 0.00 0.00 60 1008.9
20260504035758 27 193 8.0 19.3 0.00 0.00 0.00 60 1008.9
20260504035702 27 168 8.0 19.3 0.00 0.00 0.00 60 1009.0
20260504035503 27 166 9.7 20.9 0.00 0.00 0.00 60 1008.9
20260504035403 27 190 11.3 20.9 0.00 0.00 0.00 60 1008.9
20260504035304 27 177 9.7 20.9 0.00 0.00 0.00 61 1008.8
20260504035201 27 157 11.3 20.9 0.00 0.00 0.00 61 1008.8
20260504035103 27 159 9.7 20.9 0.00 0.00 0.00 61 1008.8
20260504035007 27 148 9.7 19.3 0.00 0.00 0.00 61 1008.8
20260504034901 27 186 9.7 19.3 0.00 0.00 0.00 62 1008.7
20260504034802 27 163 9.7 19.3 0.00 0.00 0.00 62 1008.7
20260504034702 27 88 9.7 19.3 0.00 0.00 0.00 61 1008.6
20260504034600 27 151 9.7 19.3 0.00 0.00 0.00 61 1008.7
20260504034505 27 125 12.9 19.3 0.00 0.00 0.00 61 1008.6
20260504034402 27 138 11.3 19.3 0.00 0.00 0.00 61 1008.5
20260504034301 27 117 11.3 17.7 0.00 0.00 0.00 61 1008.6
20260504034202 27 128 11.3 17.7 0.00 0.00 0.00 61 1008.6
20260504034059 27 144 9.7 14.5 0.00 0.00 0.00 61 1008.6
20260504033903 27 188 9.7 20.9 0.00 0.00 0.00 61 1008.5
20260504033801 27 136 9.7 20.9 0.00 0.00 0.00 61 1008.5
20260504033702 27 174 9.7 20.9 0.00 0.00 0.00 61 1008.5
20260504033504 27 178 8.0 20.9 0.00 0.00 0.00 61 1008.5
20260504033203 27 168 14.5 20.9 0.00 0.00 0.00 60 1008.7
20260504033103 27 171 12.9 20.9 0.00 0.00 0.00 60 1008.5
20260504033004 27 184 11.3 24.1 0.00 0.00 0.00 59 1008.5
20260504032902 27 184 14.5 24.1 0.00 0.00 0.00 60 1008.5
20260504032703 27 183 11.3 20.9 0.00 0.00 0.00 60 1008.5
20260504032602 27 169 9.7 19.3 0.00 0.00 0.00 60 1008.4
20260504032505 27 126 9.7 19.3 0.00 0.00 0.00 60 1008.4
20260504032403 27 161 9.7 19.3 0.00 0.00 0.00 60 1008.4
20260504032203 27 161 9.7 19.3 0.00 0.00 0.00 60 1008.4
20260504032102 26 188 9.7 19.3 0.00 0.00 0.00 59 1008.2
20260504032006 26 173 8.0 19.3 0.00 0.00 0.00 59 1008.2
20260504031803 26 170 8.0 14.5 0.00 0.00 0.00 59 1008.1
20260504031703 26 168 8.0 16.1 0.00 0.00 0.00 60 1008.1
20260504031600 26 202 8.0 12.9 0.00 0.00 0.00 60 1008.0
20260504031504 26 211 6.4 11.3 0.00 0.00 0.00 60 1008.1
20260504031403 26 189 4.8 9.7 0.00 0.00 0.00 61 1008.0
20260504031302 26 162 3.2 8.0 0.00 0.00 0.00 61 1008.0
20260504031202 26 148 1.6 9.7 0.00 0.00 0.00 62 1008.0
20260504031103 26 198 3.2 9.7 0.00 0.00 0.00 62 1007.9
20260504030902 26 182 4.8 16.1 0.00 0.00 0.00 61 1007.9
20260504030805 26 211 3.2 16.1 0.00 0.00 0.00 62 1007.9
20260504030703 26 204 3.2 16.1 0.00 0.00 0.00 62 1007.8
20260504030605 26 206 3.2 16.1 0.00 0.00 0.00 61 1007.8
20260504030504 26 201 3.2 16.1 0.00 0.00 0.00 61 1007.7
20260504030203 26 173 9.7 16.1 0.00 0.00 0.00 61 1007.7
20260504030007 26 140 3.2 11.3 0.00 0.00 0.00 63 1007.7
20260504025902 26 169 3.2 11.3 0.00 0.00 0.00 62 1007.7
20260504025803 26 219 4.8 11.3 0.00 0.00 0.00 63 1007.6
20260504025703 26 158 4.8 11.3 0.00 0.00 0.00 63 1007.7
20260504025603 26 188 6.4 11.3 0.00 0.00 0.00 63 1007.7
20260504025505 26 149 4.8 11.3 0.00 0.00 0.00 64 1007.6
20260504025403 26 173 4.8 8.0 0.00 0.00 0.00 64 1007.6
20260504025304 26 145 3.2 11.3 0.00 0.00 0.00 64 1007.5
20260504025200 26 180 3.2 11.3 0.00 0.00 0.00 64 1007.5
20260504025102 26 164 1.6 11.3 0.00 0.00 0.00 64 1007.5
20260504024902 26 152 4.8 11.3 0.00 0.00 0.00 64 1007.5
20260504024803 26 171 3.2 11.3 0.00 0.00 0.00 64 1007.4
20260504024602 26 147 6.4 11.3 0.00 0.00 0.00 64 1007.3
20260504024505 26 126 4.8 11.3 0.00 0.00 0.00 65 1007.4
20260504024402 25 113 4.8 12.9 0.00 0.00 0.00 65 1007.4
20260504024202 25 137 8.0 12.9 0.00 0.00 0.00 65 1007.5
20260504024006 25 134 4.8 12.9 0.00 0.00 0.00 65 1007.4
20260504023902 25 130 4.8 14.5 0.00 0.00 0.00 65 1007.4
20260504023803 25 145 8.0 14.5 0.00 0.00 0.00 65 1007.3
20260504023702 25 134 9.7 14.5 0.00 0.00 0.00 65 1007.4
20260504023506 25 152 6.4 14.5 0.00 0.00 0.00 66 1007.2
20260504023303 25 173 6.4 14.5 0.00 0.00 0.00 66 1007.2
20260504023200 25 128 8.0 14.5 0.00 0.00 0.00 66 1007.2
20260504022902 25 71 6.4 11.3 0.00 0.00 0.00 67 1007.2
20260504022803 25 128 6.4 14.5 0.00 0.00 0.00 67 1007.1
20260504022703 25 124 4.8 14.5 0.00 0.00 0.00 68 1007.1
20260504022602 25 124 3.2 14.5 0.00 0.00 0.00 68 1007.0
20260504022504 25 135 3.2 14.5 0.00 0.00 0.00 68 1007.0
20260504022403 25 141 3.2 14.5 0.00 0.00 0.00 68 1007.1
20260504022304 25 117 3.2 14.5 0.00 0.00 0.00 68 1007.0
20260504022202 25 148 6.4 16.1 0.00 0.00 0.00 68 1007.1
20260504022103 25 112 9.7 16.1 0.00 0.00 0.00 68 1007.1
20260504022008 25 148 11.3 19.3 0.00 0.00 0.00 68 1007.1
20260504021802 25 142 6.4 19.3 0.00 0.00 0.00 69 1007.1
20260504021703 25 189 8.0 19.3 0.00 0.00 0.00 69 1007.1
20260504021601 25 134 8.0 19.3 0.00 0.00 0.00 69 1007.1
20260504021503 25 128 8.0 19.3 0.00 0.00 0.00 69 1007.1
20260504021403 25 106 11.3 19.3 0.00 0.00 0.00 69 1007.1
20260504021302 25 155 11.3 19.3 0.00 0.00 0.00 70 1007.2
20260504021159 25 138 8.0 16.1 0.00 0.00 0.00 71 1007.1
20260504021103 25 136 6.4 11.3 0.00 0.00 0.00 71 1007.1
20260504021006 25 105 4.8 11.3 0.00 0.00 0.00 71 1007.0
20260504020901 25 84 3.2 9.7 0.00 0.00 0.00 72 1006.9
20260504020703 25 92 4.8 9.7 0.00 0.00 0.00 72 1006.8
20260504020505 25 113 3.2 9.7 0.00 0.00 0.00 72 1006.8
20260504020403 25 41 3.2 9.7 0.00 0.00 0.00 72 1006.8
20260504020009 24 82 3.2 6.4 0.00 0.00 0.00 72 1006.7
20260504015902 24 94 1.6 4.8 0.00 0.00 0.00 73 1006.7
20260504015702 24 84 1.6 4.8 0.00 0.00 0.00 73 1006.7
20260504015559 24 96 0.0 4.8 0.00 0.00 0.00 74 1006.6
20260504015506 24 88 1.6 4.8 0.00 0.00 0.00 74 1006.7
20260504015400 24 61 1.6 4.8 0.00 0.00 0.00 74 1006.6
20260504015304 24 161 1.6 4.8 0.00 0.00 0.00 74 1006.7
20260504015202 24 158 3.2 4.8 0.00 0.00 0.00 74 1006.7
20260504015102 23 156 3.2 4.8 0.00 0.00 0.00 74 1006.6
20260504015003 23 111 1.6 6.4 0.00 0.00 0.00 74 1006.6
20260504014903 23 282 0.0 6.4 0.00 0.00 0.00 74 1006.6
20260504014806 23 144 0.0 6.4 0.00 0.00 0.00 74 1006.6
20260504014702 23 144 0.0 6.4 0.00 0.00 0.00 74 1006.5
20260504014606 23 123 0.0 6.4 0.00 0.00 0.00 75 1006.6
20260504014504 23 134 0.0 6.4 0.00 0.00 0.00 75 1006.6
20260504014402 23 92 0.0 6.4 0.00 0.00 0.00 75 1006.6
20260504014202 23 101 3.2 6.4 0.00 0.00 0.00 75 1006.4
20260504014103 23 116 3.2 8.0 0.00 0.00 0.00 75 1006.4
20260504014006 23 125 3.2 8.0 0.00 0.00 0.00 74 1006.4
20260504013901 23 150 3.2 8.0 0.00 0.00 0.00 74 1006.4
20260504013802 23 184 3.2 8.0 0.00 0.00 0.00 74 1006.3
20260504013601 23 186 4.8 8.0 0.00 0.00 0.00 75 1006.3
20260504013505 23 152 3.2 8.0 0.00 0.00 0.00 75 1006.4
20260504013402 23 208 4.8 8.0 0.00 0.00 0.00 75 1006.3
20260504013302 23 134 4.8 9.7 0.00 0.00 0.00 75 1006.4
20260504013202 23 154 4.8 9.7 0.00 0.00 0.00 75 1006.3
20260504013103 23 100 3.2 9.7 0.00 0.00 0.00 75 1006.3
20260504013005 23 113 3.2 6.4 0.00 0.00 0.00 75 1006.3
20260504012902 23 64 3.2 6.4 0.00 0.00 0.00 75 1006.3
20260504012800 23 77 1.6 4.8 0.00 0.00 0.00 75 1006.3
20260504012701 23 106 1.6 4.8 0.00 0.00 0.00 75 1006.3
20260504012602 23 59 0.0 6.4 0.00 0.00 0.00 75 1006.3
20260504012402 23 78 0.0 6.4 0.00 0.00 0.00 75 1006.3
20260504012304 23 101 1.6 6.4 0.00 0.00 0.00 75 1006.2
20260504012202 23 122 3.2 6.4 0.00 0.00 0.00 75 1006.3
20260504012103 23 86 3.2 6.4 0.00 0.00 0.00 75 1006.2
20260504012006 23 112 3.2 6.4 0.00 0.00 0.00 75 1006.2
20260504011903 23 98 3.2 6.4 0.00 0.00 0.00 75 1006.1
20260504011800 23 78 3.2 6.4 0.00 0.00 0.00 75 1006.1
20260504011701 23 73 3.2 6.4 0.00 0.00 0.00 76 1006.2
20260504011600 23 102 3.2 6.4 0.00 0.00 0.00 76 1006.1
20260504011402 23 128 0.0 3.2 0.00 0.00 0.00 76 1006.1
20260504011302 23 78 0.0 1.6 0.00 0.00 0.00 76 1006.0
20260504011204 23 78 0.0 3.2 0.00 0.00 0.00 76 1006.1
20260504011102 23 78 0.0 4.8 0.00 0.00 0.00 76 1006.0
20260504011006 23 127 0.0 6.4 0.00 0.00 0.00 76 1006.1
20260504010903 23 124 0.0 6.4 0.00 0.00 0.00 76 1005.9
20260504010802 23 124 0.0 6.4 0.00 0.00 0.00 76 1006.0
20260504010702 23 90 0.0 6.4 0.00 0.00 0.00 76 1006.0
20260504010602 23 105 0.0 6.4 0.00 0.00 0.00 76 1005.9
20260504010505 23 106 1.6 6.4 0.00 0.00 0.00 76 1005.9
20260504010402 23 121 3.2 6.4 0.00 0.00 0.00 76 1005.9
20260504010303 23 141 4.8 6.4 0.00 0.00 0.00 76 1005.9
20260504010203 22 142 4.8 6.4 0.00 0.00 0.00 76 1005.9
20260504005901 22 27 0.0 6.4 0.00 0.00 0.00 76 1005.8
20260504005802 22 108 0.0 6.4 0.00 0.00 0.00 76 1005.9
20260504005603 22 59 0.0 6.4 0.00 0.00 0.00 77 1005.8
20260504005503 22 74 1.6 6.4 0.00 0.00 0.00 77 1005.8
20260504005401 22 79 3.2 6.4 0.00 0.00 0.00 77 1005.8
20260504005304 22 95 3.2 6.4 0.00 0.00 0.00 77 1005.8
20260504005202 22 117 4.8 6.4 0.00 0.00 0.00 77 1005.8
20260504005004 22 108 1.6 4.8 0.00 0.00 0.00 77 1005.7
20260504004901 22 87 1.6 4.8 0.00 0.00 0.00 77 1005.7
20260504004801 22 88 1.6 4.8 0.00 0.00 0.00 77 1005.7
20260504004700 22 76 1.6 4.8 0.00 0.00 0.00 77 1005.7
20260504004602 22 155 1.6 4.8 0.00 0.00 0.00 77 1005.7
20260504004403 22 147 3.2 9.7 0.00 0.00 0.00 77 1005.7
20260504004204 22 30 1.6 9.7 0.00 0.00 0.00 77 1005.5
20260504004004 22 81 1.6 9.7 0.00 0.00 0.00 77 1005.4
20260504003901 22 62 1.6 9.7 0.00 0.00 0.00 77 1005.5
20260504003800 22 142 3.2 9.7 0.00 0.00 0.00 77 1005.5
20260504003702 22 124 4.8 9.7 0.00 0.00 0.00 77 1005.5
20260504003602 22 82 3.2 6.4 0.00 0.00 0.00 77 1005.4
20260504003402 22 59 1.6 4.8 0.00 0.00 0.00 76 1005.3
20260504003102 22 61 1.6 3.2 0.00 0.00 0.00 76 1005.2
20260504003007 22 169 1.6 3.2 0.00 0.00 0.00 76 1005.2
20260504002903 22 101 1.6 6.4 0.00 0.00 0.00 76 1005.2
20260504002802 22 155 0.0 6.4 0.00 0.00 0.00 76 1005.2
20260504002702 22 317 0.0 6.4 0.00 0.00 0.00 76 1005.1
20260504002601 22 317 0.0 6.4 0.00 0.00 0.00 76 1005.1
20260504002505 22 311 0.0 6.4 0.00 0.00 0.00 76 1005.1
20260504002402 22 319 0.0 6.4 0.00 0.00 0.00 76 1005.1
20260504002303 22 319 1.6 6.4 0.00 0.00 0.00 76 1005.0
20260504002104 22 360 3.2 6.4 0.00 0.00 0.00 75 1004.9
20260504002003 22 360 4.8 6.4 0.00 0.00 0.00 75 1005.0
20260504001902 22 360 4.8 6.4 0.00 0.00 0.00 75 1004.9
20260504001803 23 360 3.2 6.4 0.00 0.00 0.00 75 1005.0
20260504001702 23 321 1.6 6.4 0.00 0.00 0.00 75 1005.0
20260504001600 23 321 1.6 6.4 0.00 0.00 0.00 75 1005.0
20260504001505 23 331 1.6 6.4 0.00 0.00 0.00 75 1005.0
20260504001403 23 337 1.6 6.4 0.00 0.00 0.00 75 1004.9
20260504001302 23 337 1.6 6.4 0.00 0.00 0.00 75 1005.0
20260504001104 23 19 3.2 6.4 0.00 0.00 0.00 74 1004.9
20260504001007 23 15 4.8 6.4 0.00 0.00 0.00 74 1004.9
20260504000903 23 20 3.2 6.4 0.00 0.00 0.00 74 1004.8
20260504000802 23 17 1.6 4.8 0.00 0.00 0.00 74 1004.8
20260504000701 23 12 3.2 4.8 0.00 0.00 0.00 74 1004.6
20260504000602 23 348 3.2 4.8 0.00 0.00 0.00 74 1004.7
20260504000505 23 355 1.6 3.2 0.00 0.00 0.00 74 1004.6
20260504000404 23 349 1.6 3.2 0.00 0.00 0.00 74 1004.6
20260504000303 23 349 0.0 1.6 0.00 0.00 0.00 74 1004.6
20260503235901 23 317 0.0 1.6 0.00 0.23 0.00 73 1004.3
20260503235802 23 317 0.0 1.6 0.00 0.23 0.00 73 1004.3
20260503235701 23 317 0.0 1.6 0.00 0.23 0.00 73 1004.3
20260503235601 23 317 0.0 1.6 0.00 0.23 0.00 73 1004.2
20260503235503 23 317 0.0 1.6 0.00 0.23 0.00 73 1004.2
20260503235401 23 194 0.0 0.0 0.00 0.23 0.00 73 1004.2
20260503235301 23 194 0.0 1.6 0.00 0.23 0.00 73 1004.1
20260503235201 23 194 0.0 1.6 0.00 0.23 0.00 73 1004.2
20260503235058 23 194 0.0 1.6 0.00 0.23 0.00 73 1004.1
20260503235006 23 194 0.0 1.6 0.00 0.23 0.00 73 1004.2
20260503234901 23 194 0.0 1.6 0.00 0.23 0.00 73 1004.1
20260503234800 23 194 0.0 1.6 0.00 0.23 0.00 73 1004.0
20260503234701 23 194 0.0 1.6 0.00 0.23 0.00 73 1004.1
20260503234601 23 194 0.0 1.6 0.00 0.23 0.00 73 1004.0
20260503234503 23 194 0.0 1.6 0.00 0.23 0.00 73 1004.0
20260503234401 23 195 0.0 0.0 0.00 0.23 0.00 73 1003.9
20260503234300 23 195 0.0 0.0 0.00 0.23 0.00 73 1004.0
20260503234101 23 195 0.0 0.0 0.00 0.23 0.00 73 1004.0
20260503234007 23 195 0.0 0.0 0.00 0.23 0.00 73 1003.9
20260503233701 23 195 0.0 0.0 0.00 0.23 0.00 73 1003.9
20260503233601 23 195 0.0 0.0 0.00 0.23 0.00 73 1003.9
20260503233503 23 195 0.0 0.0 0.00 0.23 0.00 73 1003.9
20260503233401 23 195 0.0 0.0 0.00 0.23 0.00 73 1003.8
20260503233201 23 195 0.0 1.6 0.00 0.23 0.00 73 1003.9
20260503233100 23 195 0.0 3.2 0.00 0.23 0.00 73 1003.9
20260503233005 23 195 0.0 3.2 0.00 0.23 0.00 73 1003.8
20260503232904 23 195 0.0 3.2 0.00 0.23 0.00 73 1003.8
20260503232801 23 195 0.0 3.2 0.00 0.23 0.00 73 1003.8
20260503232702 23 195 0.0 3.2 0.00 0.23 0.00 73 1003.9
20260503232503 23 195 0.0 3.2 0.00 0.23 0.00 73 1003.7
20260503232358 23 195 1.6 3.2 0.00 0.23 0.00 73 1003.8
20260503232305 23 195 1.6 3.2 0.00 0.23 0.00 72 1003.7
20260503232200 23 195 1.6 3.2 0.00 0.23 0.00 72 1003.8
20260503232100 23 195 1.6 3.2 0.00 0.23 0.00 72 1003.7
20260503232003 23 195 0.0 1.6 0.00 0.23 0.00 72 1003.8
20260503231900 23 195 0.0 1.6 0.00 0.23 0.00 72 1003.6
20260503231801 23 195 0.0 3.2 0.00 0.23 0.00 72 1003.7
20260503231701 23 195 0.0 4.8 0.00 0.23 0.00 73 1003.7
20260503231604 23 195 0.0 4.8 0.00 0.23 0.00 73 1003.6
20260503231504 23 195 0.0 4.8 0.00 0.23 0.00 73 1003.7
20260503231401 23 195 0.0 4.8 0.00 0.23 0.00 73 1003.8
20260503231301 23 195 0.0 4.8 0.00 0.23 0.00 73 1003.8
20260503231201 23 195 0.0 4.8 0.00 0.23 0.00 73 1003.8
20260503231100 23 195 0.0 4.8 0.00 0.23 0.00 73 1003.9
20260503231006 23 195 1.6 4.8 0.00 0.23 0.00 73 1003.9
20260503230900 23 205 1.6 4.8 0.00 0.23 0.00 73 1003.9
20260503230602 23 200 0.0 0.0 0.00 0.23 0.00 73 1003.9
20260503230504 23 166 0.0 0.0 0.00 0.23 0.00 73 1003.9
20260503230402 23 166 0.0 0.0 0.00 0.23 0.00 73 1003.9
20260503230301 23 166 0.0 0.0 0.00 0.23 0.00 73 1003.9
20260503230200 23 166 0.0 0.0 0.00 0.23 0.00 73 1003.8
20260503230104 23 166 0.0 0.0 0.00 0.23 0.00 73 1003.9
20260503225801 23 166 0.0 0.0 0.00 0.23 0.00 73 1003.9
20260503225600 23 166 0.0 0.0 0.00 0.23 0.00 73 1003.9
20260503225503 23 166 0.0 0.0 0.00 0.23 0.00 73 1003.9
20260503225401 23 166 0.0 0.0 0.00 0.23 0.00 73 1003.9
20260503225201 23 166 0.0 0.0 0.00 0.23 0.00 73 1004.0
20260503225101 23 166 0.0 0.0 0.00 0.23 0.00 73 1004.0
20260503224900 23 166 0.0 0.0 0.00 0.23 0.00 73 1003.9
20260503224801 23 166 0.0 0.0 0.00 0.23 0.00 73 1003.9
20260503224700 23 166 0.0 0.0 0.00 0.23 0.00 73 1003.9
20260503224602 23 166 0.0 0.0 0.00 0.23 0.00 73 1003.9
20260503224503 23 173 0.0 0.0 0.00 0.23 0.00 73 1003.9
20260503224402 23 173 0.0 0.0 0.00 0.23 0.00 73 1003.9
20260503224304 23 171 0.0 0.0 0.00 0.23 0.00 73 1003.9
20260503224201 23 160 0.0 0.0 0.00 0.23 0.00 73 1003.9
20260503224102 23 176 0.0 0.0 0.00 0.23 0.00 73 1003.9
20260503224005 23 197 0.0 0.0 0.00 0.23 0.00 73 1003.9
20260503223901 23 198 0.0 0.0 0.00 0.23 0.00 73 1003.8
20260503223801 23 198 0.0 0.0 0.00 0.23 0.00 73 1003.9
20260503223700 23 198 0.0 0.0 0.00 0.23 0.00 73 1003.9
20260503223503 23 198 0.0 0.0 0.00 0.23 0.00 73 1003.9
20260503223401 23 198 0.0 0.0 0.00 0.23 0.00 73 1003.9
20260503223301 23 198 0.0 0.0 0.00 0.23 0.00 73 1003.9
20260503223201 23 198 0.0 0.0 0.00 0.23 0.00 73 1003.8
20260503223103 23 198 0.0 0.0 0.00 0.23 0.00 73 1003.9
20260503223004 23 198 0.0 0.0 0.00 0.23 0.00 73 1003.8
20260503222800 23 198 0.0 0.0 0.00 0.23 0.00 73 1003.9
20260503222701 23 198 0.0 0.0 0.00 0.23 0.00 73 1003.9
20260503222503 23 198 0.0 3.2 0.00 0.23 0.00 73 1003.9
20260503222304 23 198 0.0 3.2 0.00 0.23 0.00 73 1004.0
20260503222202 23 198 0.0 3.2 0.00 0.23 0.00 73 1003.9
20260503222100 23 186 0.0 3.2 0.00 0.23 0.00 73 1003.9
20260503222003 23 186 0.0 3.2 0.00 0.23 0.00 73 1003.9
20260503221902 23 194 0.0 3.2 0.00 0.23 0.00 73 1004.0
20260503221800 23 194 0.0 3.2 0.00 0.23 0.00 73 1003.9
20260503221702 23 190 1.6 3.2 0.00 0.23 0.00 73 1003.9
20260503221600 23 165 1.6 3.2 0.00 0.23 0.00 73 1004.0
20260503221402 23 156 0.0 1.6 0.00 0.23 0.00 73 1003.9
20260503221300 23 156 0.0 1.6 0.00 0.23 0.00 73 1003.9
20260503221202 23 156 0.0 1.6 0.00 0.23 0.00 73 1003.9
20260503221006 23 157 0.0 1.6 0.00 0.23 0.00 73 1003.9
20260503220900 23 161 0.0 1.6 0.00 0.23 0.00 73 1003.9
20260503220802 23 166 0.0 1.6 0.00 0.23 0.00 73 1003.9
20260503220700 23 172 0.0 3.2 0.00 0.23 0.00 73 1003.9
20260503220401 23 180 0.0 4.8 0.00 0.23 0.00 73 1003.9
20260503220302 23 201 0.0 4.8 0.00 0.23 0.00 73 1003.9
20260503220200 23 173 0.0 8.0 0.00 0.23 0.00 73 1003.9
20260503220100 23 177 0.0 8.0 0.00 0.23 0.00 73 1003.9
20260503220006 23 195 0.0 8.0 0.00 0.23 0.00 73 1003.9
20260503215901 23 194 1.6 8.0 0.00 0.23 0.00 73 1003.9
20260503215800 23 191 1.6 8.0 0.00 0.23 0.00 73 1003.9
20260503215602 23 181 3.2 8.0 0.00 0.23 0.00 73 1003.9
20260503215403 23 207 4.8 8.0 0.00 0.23 0.00 73 1003.9
20260503215300 23 205 4.8 8.0 0.00 0.23 0.00 73 1003.9
20260503215202 23 205 3.2 6.4 0.00 0.23 0.00 73 1003.8
20260503215007 23 196 3.2 6.4 0.00 0.23 0.00 72 1003.9
20260503214700 23 207 1.6 6.4 0.00 0.23 0.00 72 1003.9
20260503214601 23 208 0.0 8.0 0.00 0.23 0.00 72 1003.8
20260503214503 23 256 0.0 8.0 0.00 0.23 0.00 72 1003.8
20260503214402 23 261 0.0 8.0 0.00 0.23 0.00 72 1003.9
20260503214300 23 261 0.0 8.0 0.00 0.23 0.00 72 1003.8
20260503214200 23 229 1.6 8.0 0.00 0.23 0.00 72 1003.8
20260503214101 23 207 1.6 8.0 0.00 0.23 0.00 72 1003.9
20260503214004 23 208 3.2 8.0 0.00 0.23 0.00 72 1003.8
20260503213902 23 219 4.8 8.0 0.00 0.23 0.00 72 1003.9
20260503213700 23 196 4.8 8.0 0.00 0.23 0.00 72 1003.9
20260503213600 23 180 4.8 8.0 0.00 0.23 0.00 72 1003.9
20260503213504 23 193 4.8 8.0 0.00 0.23 0.00 72 1003.9
20260503213400 23 206 3.2 6.4 0.00 0.23 0.00 72 1003.8
20260503213302 23 213 1.6 4.8 0.00 0.23 0.00 72 1003.8
20260503213208 23 207 1.6 3.2 0.00 0.23 0.00 72 1003.9
20260503213100 23 227 0.0 1.6 0.00 0.23 0.00 71 1003.8
20260503213005 23 227 0.0 1.6 0.00 0.23 0.00 71 1003.8
20260503212902 23 227 0.0 1.6 0.00 0.23 0.00 71 1003.8
20260503212801 23 227 0.0 1.6 0.00 0.23 0.00 71 1003.8
20260503212504 23 215 0.0 0.0 0.00 0.23 0.00 71 1003.8
20260503212401 23 215 0.0 0.0 0.00 0.23 0.00 71 1003.8
20260503212300 23 215 0.0 0.0 0.00 0.23 0.00 71 1003.8
20260503212203 23 215 0.0 0.0 0.00 0.23 0.00 71 1003.7
20260503212104 23 215 0.0 1.6 0.00 0.23 0.00 71 1003.7
20260503212006 23 215 0.0 1.6 0.00 0.23 0.00 71 1003.7
20260503211902 23 215 0.0 3.2 0.00 0.23 0.00 71 1003.6
20260503211802 23 215 0.0 3.2 0.00 0.23 0.00 71 1003.8
20260503211702 24 217 0.0 3.2 0.00 0.23 0.00 70 1003.8
20260503211504 24 280 0.0 4.8 0.00 0.23 0.00 70 1003.8
20260503211359 24 280 0.0 4.8 0.00 0.23 0.00 70 1003.9
20260503211200 24 271 1.6 4.8 0.00 0.23 0.00 70 1003.8
20260503211101 24 290 1.6 4.8 0.00 0.23 0.00 70 1003.8
20260503211003 24 304 1.6 4.8 0.00 0.23 0.00 70 1003.8
20260503210902 24 296 1.6 4.8 0.00 0.23 0.00 70 1003.9
20260503210801 24 305 1.6 4.8 0.00 0.23 0.00 70 1003.8
20260503210700 24 288 3.2 4.8 0.00 0.23 0.00 70 1003.8
20260503210401 24 288 1.6 3.2 0.00 0.23 0.00 69 1003.8
20260503210300 24 288 1.6 4.8 0.00 0.23 0.00 69 1003.7
20260503210200 24 250 0.0 4.8 0.00 0.23 0.00 69 1003.7
20260503210100 24 250 0.0 6.4 0.00 0.23 0.00 69 1003.6
20260503210006 24 204 0.0 6.4 0.00 0.23 0.00 69 1003.6
20260503205902 24 172 0.0 6.4 0.00 0.23 0.00 69 1003.6
20260503205800 24 172 1.6 6.4 0.00 0.23 0.00 69 1003.5
20260503205702 24 172 1.6 6.4 0.00 0.23 0.00 69 1003.4
20260503205604 24 173 3.2 6.4 0.00 0.23 0.00 69 1003.4
20260503205505 24 173 3.2 6.4 0.00 0.23 0.00 69 1003.4
20260503205400 24 168 4.8 6.4 0.00 0.23 0.00 69 1003.5
20260503205303 24 169 4.8 6.4 0.00 0.23 0.00 69 1003.4
20260503205202 24 175 4.8 6.4 0.00 0.23 0.00 69 1003.5
20260503205101 24 183 3.2 6.4 0.00 0.23 0.00 69 1003.4
20260503205006 24 175 3.2 6.4 0.00 0.23 0.00 69 1003.4
20260503204901 24 171 1.6 3.2 0.00 0.23 0.00 69 1003.5
20260503204802 24 172 1.6 3.2 0.00 0.23 0.00 69 1003.5
20260503204700 24 167 0.0 3.2 0.00 0.23 0.00 69 1003.4
20260503204559 24 186 0.0 3.2 0.00 0.23 0.00 69 1003.5
20260503204503 24 180 0.0 3.2 0.00 0.23 0.00 69 1003.5
20260503204402 24 173 0.0 3.2 0.00 0.23 0.00 69 1003.5
20260503204300 24 190 0.0 3.2 0.00 0.23 0.00 69 1003.5
20260503204202 24 187 0.0 3.2 0.00 0.23 0.00 69 1003.5
20260503204102 24 190 0.0 3.2 0.00 0.23 0.00 69 1003.5
20260503204004 24 208 0.0 3.2 0.00 0.23 0.00 68 1003.5
20260503203902 24 244 0.0 1.6 0.00 0.23 0.00 68 1003.5
20260503203703 24 244 0.0 0.0 0.00 0.23 0.00 69 1003.5
20260503203602 24 288 0.0 0.0 0.00 0.23 0.00 68 1003.4
20260503203500 24 288 0.0 1.6 0.00 0.23 0.00 68 1003.5
20260503203403 25 288 0.0 1.6 0.00 0.23 0.00 68 1003.5
20260503203302 25 288 0.0 1.6 0.00 0.23 0.00 68 1003.5
20260503203203 25 288 0.0 3.2 0.00 0.23 0.00 68 1003.5
20260503203102 25 288 0.0 3.2 0.00 0.23 0.00 68 1003.5
20260503203003 25 288 0.0 3.2 0.00 0.23 0.00 68 1003.4
20260503202903 25 288 0.0 3.2 0.00 0.23 0.00 68 1003.5
20260503202806 25 288 0.0 3.2 0.00 0.23 0.00 67 1003.5
20260503202700 25 288 0.0 3.2 0.00 0.23 0.00 67 1003.5
20260503202602 25 288 0.0 3.2 0.00 0.23 0.00 67 1003.5
20260503202504 25 288 0.0 3.2 0.00 0.23 0.00 67 1003.5
20260503202402 25 288 0.0 3.2 0.00 0.23 0.00 66 1003.5
20260503202304 25 298 0.0 3.2 0.00 0.23 0.00 66 1003.5
20260503202101 25 355 0.0 1.6 0.00 0.23 0.00 65 1003.5
20260503202005 25 355 0.0 1.6 0.00 0.23 0.00 65 1003.5
20260503201902 25 355 0.0 1.6 0.00 0.23 0.00 65 1003.5
20260503201700 25 355 0.0 1.6 0.00 0.23 0.00 65 1003.5
20260503201601 25 355 0.0 1.6 0.00 0.23 0.00 65 1003.5
20260503201503 25 355 0.0 1.6 0.00 0.23 0.00 65 1003.5
20260503201402 25 355 0.0 1.6 0.00 0.23 0.00 65 1003.5
20260503201302 25 355 0.0 1.6 0.00 0.23 0.00 65 1003.5
20260503201200 25 355 0.0 1.6 0.00 0.23 0.00 65 1003.5
20260503201103 25 355 0.0 1.6 0.00 0.23 0.00 65 1003.5
20260503201003 25 355 0.0 1.6 0.00 0.23 0.00 65 1003.6
20260503200901 25 355 0.0 1.6 0.00 0.23 0.00 65 1003.6
20260503200802 25 355 0.0 1.6 0.00 0.23 0.00 65 1003.5
20260503200701 25 355 0.0 1.6 0.00 0.23 0.00 64 1003.5
20260503200603 25 355 0.0 1.6 0.00 0.23 0.00 64 1003.5
20260503200403 25 355 0.0 1.6 0.00 0.23 0.00 64 1003.6
20260503200304 25 355 0.0 1.6 0.00 0.23 0.00 64 1003.6
20260503200203 25 355 0.0 1.6 0.00 0.23 0.00 64 1003.6
20260503200101 25 355 0.0 1.6 0.00 0.23 0.00 64 1003.6
20260503200007 25 355 0.0 1.6 0.00 0.23 0.00 63 1003.6
20260503195903 25 355 0.0 1.6 0.00 0.23 0.00 63 1003.6
20260503195803 25 355 0.0 3.2 0.00 0.23 0.00 63 1003.7
20260503195704 25 355 0.0 3.2 0.00 0.23 0.00 63 1003.6
20260503195605 25 19 0.0 3.2 0.00 0.23 0.00 63 1003.8
20260503195507 25 55 0.0 3.2 0.00 0.23 0.00 62 1003.8
20260503195403 25 55 0.0 3.2 0.00 0.23 0.00 62 1003.8
20260503195203 25 55 0.0 3.2 0.00 0.23 0.00 62 1003.7
20260503195006 25 93 0.0 3.2 0.00 0.23 0.00 63 1003.7
20260503194907 25 149 0.0 1.6 0.00 0.23 0.00 63 1003.8
20260503194802 25 149 0.0 1.6 0.00 0.23 0.00 63 1003.8
20260503194703 25 149 0.0 1.6 0.00 0.23 0.00 63 1003.8
20260503194605 25 149 0.0 3.2 0.00 0.23 0.00 63 1003.8
20260503194506 25 149 0.0 3.2 0.00 0.23 0.00 63 1003.8
20260503194401 25 149 0.0 3.2 0.00 0.23 0.00 63 1003.9
20260503194302 25 149 0.0 3.2 0.00 0.23 0.00 63 1003.9
20260503194206 25 122 0.0 3.2 0.00 0.23 0.00 63 1003.9
20260503194109 25 84 0.0 3.2 0.00 0.23 0.00 63 1003.9
20260503194008 25 109 0.0 3.2 0.00 0.23 0.00 63 1003.9
20260503193902 25 86 0.0 3.2 0.00 0.23 0.00 63 1003.9
20260503193803 25 78 0.0 3.2 0.00 0.23 0.00 63 1003.9
20260503193602 25 92 0.0 1.6 0.00 0.23 0.00 64 1004.0
20260503193505 25 63 0.0 1.6 0.00 0.23 0.00 64 1003.9
20260503193403 25 67 0.0 1.6 0.00 0.23 0.00 64 1004.0
20260503193305 25 98 0.0 1.6 0.00 0.23 0.00 64 1004.0
20260503193203 25 88 0.0 1.6 0.00 0.23 0.00 64 1003.9
20260503193103 25 49 0.0 1.6 0.00 0.23 0.00 64 1003.9
20260503193006 25 81 0.0 1.6 0.00 0.23 0.00 64 1004.0
20260503192903 25 55 0.0 1.6 0.00 0.23 0.00 64 1004.0
20260503192802 25 53 0.0 1.6 0.00 0.23 0.00 64 1004.0
20260503192605 25 53 0.0 1.6 0.00 0.23 0.00 64 1004.0
20260503192505 25 61 0.0 1.6 0.00 0.23 0.00 64 1004.0
20260503192401 25 68 0.0 1.6 0.00 0.23 0.00 64 1004.0
20260503192305 25 42 0.0 1.6 0.00 0.23 0.00 64 1004.0
20260503192201 25 42 0.0 1.6 0.00 0.23 0.00 64 1004.0
20260503192105 25 42 0.0 1.6 0.00 0.23 0.00 64 1004.0
20260503192007 25 51 0.0 1.6 0.00 0.23 0.00 64 1004.1
20260503191904 25 88 0.0 1.6 0.00 0.23 0.00 64 1004.1
20260503191505 25 163 0.0 0.0 0.00 0.23 0.00 64 1004.2
20260503191405 25 163 0.0 0.0 0.00 0.23 0.00 64 1004.2
20260503191310 25 163 0.0 0.0 0.00 0.23 0.00 64 1004.3
20260503191204 25 163 0.0 6.4 0.00 0.23 0.00 64 1004.3
20260503191110 25 163 0.0 6.4 0.00 0.23 0.00 64 1004.3
20260503191006 25 163 0.0 6.4 0.00 0.23 0.00 64 1004.3
20260503190904 25 163 0.0 6.4 0.00 0.23 0.00 64 1004.3
20260503190805 25 163 0.0 6.4 0.00 0.23 0.00 64 1004.4
20260503190703 25 163 0.0 6.4 0.00 0.23 0.00 64 1004.5
20260503190604 25 163 0.0 6.4 0.00 0.23 0.00 64 1004.4
20260503190511 25 163 0.0 6.4 0.00 0.23 0.00 64 1004.5
20260503190302 25 163 0.0 6.4 0.00 0.23 0.00 64 1004.4
20260503190203 25 163 0.0 6.4 0.00 0.23 0.00 64 1004.5
20260503190104 25 163 0.0 6.4 0.00 0.23 0.00 64 1004.4
20260503190014 25 163 0.0 6.4 0.00 0.23 0.00 64 1004.5
20260503185903 25 163 0.0 6.4 0.00 0.23 0.23 63 1004.4
20260503185803 25 86 0.0 6.4 0.00 0.23 0.23 63 1004.4
20260503185702 25 81 0.0 8.0 0.00 0.23 0.23 63 1004.4
20260503185603 25 80 0.0 8.0 0.00 0.23 0.23 63 1004.5
20260503185506 25 27 1.6 8.0 0.00 0.23 0.23 63 1004.4
20260503185403 25 62 1.6 8.0 0.00 0.23 0.23 63 1004.5
20260503185203 25 40 3.2 8.0 0.00 0.23 0.23 64 1004.3
20260503185102 25 49 3.2 8.0 0.00 0.23 0.23 64 1004.3
20260503185007 25 49 4.8 8.0 0.00 0.23 0.23 64 1004.3
20260503184803 25 46 4.8 8.0 0.00 0.23 0.23 63 1004.3
20260503184704 25 51 4.8 8.0 0.00 0.23 0.23 63 1004.3
20260503184603 25 67 4.8 8.0 0.00 0.23 0.23 63 1004.3
20260503184506 25 54 3.2 6.4 0.00 0.23 0.23 63 1004.3
20260503184403 25 51 1.6 6.4 0.00 0.23 0.23 64 1004.3
20260503184302 25 38 1.6 6.4 0.00 0.23 0.23 64 1004.3
20260503184104 25 39 1.6 6.4 0.00 0.23 0.23 64 1004.3
20260503184007 25 50 3.2 6.4 0.00 0.23 0.23 64 1004.3
20260503183904 25 49 1.6 6.4 0.00 0.23 0.23 64 1004.3
20260503183805 25 74 1.6 3.2 0.00 0.23 0.23 64 1004.3
20260503183703 25 61 1.6 3.2 0.00 0.23 0.23 64 1004.3
20260503183603 25 42 1.6 3.2 0.00 0.23 0.23 64 1004.3
20260503183505 25 55 1.6 3.2 0.00 0.23 0.23 64 1004.4
20260503183404 25 15 0.0 3.2 0.00 0.23 0.23 64 1004.2
20260503183203 25 49 0.0 3.2 0.00 0.23 0.23 64 1004.2
20260503183103 25 28 1.6 4.8 0.00 0.23 0.23 64 1004.3
20260503183008 25 360 1.6 4.8 0.00 0.23 0.23 64 1004.2
20260503182903 25 27 0.0 4.8 0.00 0.23 0.23 64 1004.2
20260503182704 25 50 0.0 6.4 0.00 0.23 0.23 65 1004.2
20260503182603 25 29 0.0 6.4 0.00 0.23 0.23 65 1004.2
20260503182305 25 9 3.2 6.4 0.00 0.23 0.23 64 1004.2
20260503182204 25 30 1.6 6.4 0.00 0.23 0.23 64 1004.1
20260503182102 25 360 3.2 6.4 0.00 0.23 0.23 64 1004.2
20260503182006 25 57 4.8 6.4 0.00 0.23 0.23 64 1004.2
20260503181803 25 5 3.2 6.4 0.00 0.23 0.23 64 1004.2
20260503181703 25 23 1.6 3.2 0.00 0.23 0.23 64 1004.3
20260503181602 25 5 1.6 3.2 0.00 0.23 0.23 64 1004.3
20260503181507 25 13 0.0 6.4 0.00 0.23 0.23 64 1004.3
20260503181304 25 34 1.6 6.4 0.00 0.23 0.23 64 1004.4
20260503181005 25 348 1.6 6.4 0.00 0.23 0.23 65 1004.3
20260503180907 25 337 1.6 6.4 0.00 0.23 0.23 64 1004.3
20260503180803 25 343 1.6 6.4 0.00 0.23 0.23 64 1004.3
20260503180703 25 360 1.6 6.4 0.00 0.23 0.23 64 1004.3
20260503180602 25 350 1.6 3.2 0.00 0.23 0.23 64 1004.3
20260503180504 25 345 0.0 3.2 0.00 0.23 0.23 64 1004.3
20260503180402 25 5 1.6 4.8 0.00 0.23 0.23 64 1004.2
20260503180302 25 351 1.6 4.8 0.00 0.23 0.23 64 1004.3
20260503180202 25 341 0.0 4.8 0.00 0.23 0.23 64 1004.3
20260503180009 25 350 1.6 6.4 0.00 0.23 0.23 64 1004.4
20260503175904 25 329 0.0 9.7 0.00 0.23 0.23 64 1004.4
20260503175802 25 355 1.6 9.7 0.00 0.23 0.23 64 1004.5
20260503175706 25 22 1.6 9.7 0.00 0.23 0.23 64 1004.5
20260503175604 25 325 1.6 9.7 0.00 0.23 0.23 64 1004.5
20260503175507 25 343 1.6 9.7 0.00 0.23 0.23 64 1004.4
20260503175402 25 349 1.6 9.7 0.00 0.23 0.23 64 1004.5
20260503175104 25 32 4.8 9.7 0.00 0.23 0.23 64 1004.5
20260503175010 25 5 3.2 8.0 0.00 0.23 0.23 64 1004.5
20260503174904 25 27 4.8 8.0 0.00 0.23 0.23 64 1004.5
20260503174804 25 32 4.8 8.0 0.00 0.23 0.23 64 1004.5
20260503174703 25 13 3.2 8.0 0.00 0.23 0.23 64 1004.6
20260503174605 26 31 3.2 8.0 0.00 0.23 0.23 64 1004.6
20260503174504 26 29 3.2 8.0 0.00 0.23 0.23 63 1004.7
20260503174304 26 351 3.2 8.0 0.00 0.23 0.23 63 1004.7
20260503174202 26 343 4.8 8.0 0.00 0.23 0.23 63 1004.7
20260503174103 26 351 3.2 8.0 0.00 0.23 0.23 63 1004.7
20260503174006 26 21 3.2 9.7 0.00 0.23 0.23 63 1004.8
20260503173903 26 5 3.2 11.3 0.00 0.23 0.23 63 1004.7
20260503173800 26 348 3.2 11.3 0.00 0.23 0.23 63 1004.7
20260503173703 26 355 1.6 14.5 0.00 0.23 0.23 63 1004.8
20260503173303 26 28 4.8 14.5 0.00 0.23 0.23 62 1004.7
20260503173203 26 5 6.4 14.5 0.00 0.23 0.23 62 1004.6
20260503173007 26 53 6.4 14.5 0.00 0.23 0.23 62 1004.7
20260503172903 26 44 8.0 14.5 0.00 0.23 0.23 62 1004.6
20260503172702 26 71 9.7 11.3 0.00 0.23 0.23 61 1004.6
20260503172602 26 44 8.0 12.9 0.00 0.23 0.23 61 1004.7
20260503172403 26 38 4.8 12.9 0.00 0.23 0.23 60 1004.7
20260503172305 26 26 3.2 12.9 0.00 0.23 0.23 60 1004.8
20260503172102 26 20 4.8 12.9 0.00 0.23 0.23 59 1004.8
20260503172010 26 32 6.4 12.9 0.00 0.23 0.23 59 1004.9
20260503171702 27 5 6.4 12.9 0.00 0.23 0.23 58 1004.9
20260503171505 27 346 4.8 9.7 0.00 0.23 0.23 57 1005.0
20260503171403 27 360 4.8 9.7 0.00 0.23 0.23 56 1004.9
20260503171303 27 351 4.8 9.7 0.00 0.23 0.23 56 1005.0
20260503171203 27 355 3.2 8.0 0.00 0.23 0.23 55 1005.0
20260503171007 27 355 3.2 8.0 0.00 0.23 0.23 55 1005.0
20260503170904 27 360 3.2 8.0 0.00 0.23 0.23 55 1005.0
20260503170803 27 349 1.6 8.0 0.00 0.23 0.23 54 1004.9
20260503170702 27 351 1.6 8.0 0.00 0.23 0.23 54 1004.9
20260503170505 27 28 3.2 12.9 0.00 0.23 0.23 54 1004.9
20260503170403 27 46 4.8 12.9 0.00 0.23 0.23 54 1004.9
20260503170303 27 41 4.8 12.9 0.00 0.23 0.23 54 1004.9
20260503170202 27 35 4.8 12.9 0.00 0.23 0.23 54 1004.8
20260503160204 28 331 0.0 0.0 0.00 0.23 0.23 53 1005.6
20260503151005 28 124 1.6 6.4 0.00 0.23 0.23 56 1005.2
20260503150802 28 74 3.2 9.7 0.00 0.23 0.23 56 1005.1
20260503150701 28 65 3.2 9.7 0.00 0.23 0.23 56 1005.0
20260503150602 28 85 3.2 9.7 0.00 0.23 0.23 56 1005.1
20260503150503 28 67 3.2 9.7 0.00 0.23 0.23 56 1005.0
20260503150400 28 101 3.2 9.7 0.00 0.23 0.23 57 1005.0
20260503150302 28 99 3.2 9.7 0.00 0.23 0.23 57 1005.1
20260503150200 28 82 3.2 9.7 0.00 0.23 0.23 56 1005.0
20260503140303 30 136 3.2 11.3 0.00 0.23 0.23 42 1004.5
20260503140203 30 143 4.8 14.5 0.00 0.23 0.23 42 1004.5
20260503131406 32 296 0.0 1.6 0.00 0.23 0.23 41 1004.1
20260503131303 32 308 0.0 1.6 0.00 0.23 0.23 40 1004.0
20260503131202 32 323 0.0 1.6 0.00 0.23 0.23 40 1004.1
20260503131104 32 336 0.0 1.6 0.00 0.23 0.23 40 1004.0
20260503131006 32 360 0.0 1.6 0.00 0.23 0.23 39 1004.0
20260503130905 32 15 0.0 1.6 0.00 0.23 0.23 39 1003.9
20260503130804 32 34 0.0 1.6 0.00 0.23 0.23 39 1003.9
20260503130603 32 98 0.0 1.6 0.00 0.23 0.23 38 1003.9
20260503130505 32 72 0.0 1.6 0.00 0.23 0.23 38 1004.0
20260503130403 32 72 0.0 1.6 0.00 0.23 0.23 38 1003.9
20260503110703 32 236 4.8 12.9 0.00 0.23 0.23 39 1003.9
20260503110602 32 284 4.8 12.9 0.00 0.23 0.23 39 1003.9
20260503110504 32 263 4.8 12.9 0.00 0.23 0.23 40 1003.9
20260503110306 32 188 4.8 12.9 0.00 0.23 0.23 40 1003.9
20260503110201 32 298 6.4 12.9 0.00 0.23 0.23 39 1003.9
20260503100202 32 256 4.8 17.7 0.00 0.23 0.23 38 1004.1
20260503090505 32 218 12.9 17.7 0.00 0.23 0.23 41 1004.6
20260503090402 32 184 14.5 17.7 0.00 0.23 0.23 40 1004.6
20260503090304 32 184 12.9 20.9 0.00 0.23 0.23 39 1004.6
20260503090201 32 193 11.3 16.1 0.00 0.23 0.23 39 1004.5
20260503081602 32 155 11.3 27.4 0.00 0.23 0.23 42 1004.9
20260503081505 32 157 11.3 27.4 0.00 0.23 0.23 41 1005.0
20260503081401 32 181 12.9 27.4 0.00 0.23 0.23 42 1005.0
20260503081301 32 164 14.5 27.4 0.00 0.23 0.23 42 1005.0
20260503081200 32 152 16.1 27.4 0.00 0.23 0.23 42 1005.1
20260503081100 32 160 19.3 27.4 0.00 0.23 0.23 41 1005.1
20260503081004 32 168 16.1 27.4 0.00 0.23 0.23 41 1005.0
20260503080903 32 202 9.7 25.7 0.00 0.23 0.23 43 1004.8
20260503080802 32 224 4.8 19.3 0.00 0.23 0.23 43 1004.9
20260503080702 32 200 8.0 19.3 0.00 0.23 0.23 43 1005.0
20260503080601 32 173 11.3 19.3 0.00 0.23 0.23 42 1005.0
20260503080504 32 232 11.3 19.3 0.00 0.23 0.23 42 1005.0
20260503080401 32 204 11.3 19.3 0.00 0.23 0.23 42 1005.0
20260503072816 31 163 12.9 22.5 0.00 0.23 0.23 44 1005.0
20260503072600 31 168 11.3 22.5 0.00 0.23 0.23 45 1005.1
20260503072508 31 183 11.3 22.5 0.00 0.23 0.23 44 1005.0
20260503072402 31 194 12.9 22.5 0.00 0.23 0.23 45 1005.0
20260503072311 31 228 12.9 22.5 0.00 0.23 0.23 44 1005.0
20260503072206 31 135 11.3 22.5 0.00 0.23 0.23 44 1005.1
20260503072104 31 163 12.9 22.5 0.00 0.23 0.23 45 1005.0
20260503071901 31 155 16.1 25.7 0.00 0.23 0.23 45 1005.2
20260503071802 31 186 17.7 25.7 0.00 0.23 0.23 45 1005.2
20260503071702 31 162 17.7 25.7 0.00 0.23 0.23 45 1005.0
20260503071606 31 146 17.7 25.7 0.00 0.23 0.23 44 1005.1
20260503071511 31 182 14.5 25.7 0.00 0.23 0.23 44 1005.2
20260503071405 31 172 11.3 25.7 0.00 0.23 0.23 46 1004.9
20260503071303 31 136 11.3 25.7 0.00 0.23 0.23 45 1005.0
20260503071101 31 173 8.0 25.7 0.00 0.23 0.23 45 1005.1
20260503071006 31 153 12.9 25.7 0.00 0.23 0.23 44 1005.1
20260503070902 31 152 17.7 25.7 0.00 0.23 0.23 45 1005.2
20260503070803 31 165 17.7 25.7 0.00 0.23 0.23 45 1005.2
20260503070703 31 182 14.5 25.7 0.00 0.23 0.23 45 1005.1
20260503070603 31 170 16.1 25.7 0.00 0.23 0.23 44 1005.1
20260503070402 31 155 14.5 27.4 0.00 0.23 0.23 46 1004.9
20260503070302 31 196 11.3 24.1 0.00 0.23 0.23 46 1005.1
20260503070203 31 211 11.3 24.1 0.00 0.23 0.23 47 1005.0
20260503060301 29 128 12.9 22.5 0.00 0.23 0.23 52 1005.0
20260503060205 28 193 12.9 24.1 0.00 0.23 0.23 52 1005.1
20260503054901 29 107 16.1 27.4 0.00 0.23 0.23 50 1005.0
20260503054804 29 138 19.3 27.4 0.00 0.23 0.23 50 1005.1
20260503054704 29 173 20.9 29.0 0.00 0.23 0.23 50 1005.0
20260503054603 29 138 17.7 29.0 0.00 0.23 0.23 50 1005.0
20260503054403 29 127 16.1 27.4 0.00 0.23 0.23 51 1005.0
20260503054303 29 126 11.3 27.4 0.00 0.23 0.23 52 1005.0
20260503054102 28 177 14.5 27.4 0.00 0.23 0.23 51 1005.0
20260503054005 28 106 19.3 27.4 0.00 0.23 0.23 51 1004.9
20260503053901 28 105 19.3 27.4 0.00 0.23 0.23 50 1004.9
20260503053805 28 130 17.7 27.4 0.00 0.23 0.23 51 1004.9
20260503053702 28 178 16.1 25.7 0.00 0.23 0.23 51 1005.0
20260503053601 28 140 14.5 25.7 0.00 0.23 0.23 51 1004.9
20260503053404 28 209 14.5 24.1 0.00 0.23 0.23 51 1004.9
20260503053305 28 142 16.1 24.1 0.00 0.23 0.23 51 1004.9
20260503053203 28 157 19.3 25.7 0.00 0.23 0.23 52 1004.9
20260503053105 28 144 14.5 25.7 0.00 0.23 0.23 51 1004.9
20260503053008 28 128 9.7 27.4 0.00 0.23 0.23 52 1004.9
20260503052904 28 148 12.9 27.4 0.00 0.23 0.23 51 1004.9
20260503052703 28 97 16.1 27.4 0.00 0.23 0.23 51 1005.0
20260503052603 28 113 17.7 29.0 0.00 0.23 0.23 51 1004.9
20260503052505 28 107 16.1 29.0 0.00 0.23 0.23 51 1004.9
20260503052403 28 110 14.5 29.0 0.00 0.23 0.23 52 1004.9
20260503052202 28 150 19.3 29.0 0.00 0.23 0.23 51 1005.0
20260503052104 28 153 17.7 29.0 0.00 0.23 0.23 51 1004.9
20260503052007 28 119 19.3 29.0 0.00 0.23 0.23 52 1005.0
20260503051903 28 167 20.9 29.0 0.00 0.23 0.23 52 1004.9
20260503051803 28 101 14.5 29.0 0.00 0.23 0.23 52 1004.8
20260503051703 28 116 12.9 25.7 0.00 0.23 0.23 53 1004.9
20260503051506 28 91 12.9 27.4 0.00 0.23 0.23 54 1004.8
20260503051401 28 151 11.3 29.0 0.00 0.23 0.23 53 1004.8
20260503051302 28 123 14.5 30.6 0.00 0.23 0.23 53 1004.8
20260503051204 28 116 17.7 30.6 0.00 0.23 0.23 53 1004.9
20260503051107 28 123 17.7 30.6 0.00 0.23 0.23 53 1004.8
20260503051008 28 129 17.7 30.6 0.00 0.23 0.23 53 1004.8
20260503050902 28 111 17.7 30.6 0.00 0.23 0.23 52 1004.9
20260503050805 28 141 20.9 30.6 0.00 0.23 0.23 53 1004.9
20260503050703 28 125 19.3 30.6 0.00 0.23 0.23 52 1005.0
20260503050602 28 144 17.7 30.6 0.00 0.23 0.23 53 1004.9
20260503050504 28 167 16.1 30.6 0.00 0.23 0.23 53 1005.0
20260503050404 28 167 14.5 24.1 0.00 0.23 0.23 53 1004.8
20260503050305 28 138 14.5 24.1 0.00 0.23 0.23 53 1004.8
20260503050104 28 133 12.9 24.1 0.00 0.23 0.23 53 1004.8
20260503050010 28 146 16.1 24.1 0.00 0.23 0.23 53 1004.8
20260503045901 28 184 17.7 24.1 0.00 0.23 0.23 53 1004.8
20260503045800 28 152 14.5 24.1 0.00 0.23 0.23 54 1004.8
20260503045703 28 134 12.9 24.1 0.00 0.23 0.23 54 1004.8
20260503045602 28 168 16.1 24.1 0.00 0.23 0.23 53 1004.8
20260503045505 28 132 19.3 24.1 0.00 0.23 0.23 53 1004.8
20260503045404 28 153 14.5 22.5 0.00 0.23 0.23 52 1004.8
20260503045301 28 114 11.3 20.9 0.00 0.23 0.23 53 1004.8
20260503045202 28 174 11.3 19.3 0.00 0.23 0.23 54 1004.8
20260503044903 28 131 11.3 19.3 0.00 0.23 0.23 53 1004.9
20260503044800 28 292 12.9 19.3 0.00 0.23 0.23 53 1004.8
20260503044701 28 142 12.9 19.3 0.00 0.23 0.23 53 1004.8
20260503044603 28 149 11.3 19.3 0.00 0.23 0.23 53 1004.9
20260503044504 28 119 8.0 19.3 0.00 0.23 0.23 55 1004.8
20260503044403 28 139 9.7 19.3 0.00 0.23 0.23 55 1004.8
20260503044301 27 138 12.9 22.5 0.00 0.23 0.23 54 1004.8
20260503044203 27 133 14.5 25.7 0.00 0.23 0.23 53 1004.9
20260503044103 27 128 11.3 25.7 0.00 0.23 0.23 54 1004.9
20260503044007 27 136 11.3 25.7 0.00 0.23 0.23 54 1004.8
20260503043901 27 161 12.9 25.7 0.00 0.23 0.23 53 1004.8
20260503043801 27 123 12.9 25.7 0.00 0.23 0.23 53 1004.8
20260503043700 27 124 12.9 25.7 0.00 0.23 0.23 53 1004.8
20260503043601 27 112 14.5 25.7 0.00 0.23 0.23 53 1005.0
20260503043505 27 132 19.3 25.7 0.00 0.23 0.23 53 1004.9
20260503043401 27 109 16.1 25.7 0.00 0.23 0.23 54 1004.7
20260503043302 27 119 9.7 19.3 0.00 0.23 0.23 55 1004.8
20260503043200 27 138 9.7 19.3 0.00 0.23 0.23 55 1004.8
20260503043005 27 13 12.9 19.3 0.00 0.23 0.23 55 1004.8
20260503042901 27 80 11.3 19.3 0.00 0.23 0.23 55 1004.9
20260503042802 27 106 11.3 19.3 0.00 0.23 0.23 55 1004.8
20260503042701 27 96 12.9 19.3 0.00 0.23 0.23 55 1004.8
20260503042601 27 157 12.9 19.3 0.00 0.23 0.23 55 1004.8
20260503042358 27 136 8.0 17.7 0.00 0.23 0.23 56 1004.8
20260503042304 27 86 11.3 17.7 0.00 0.23 0.23 56 1004.9